PD0HRY-12 Weather Reports


Display with metric or nautical units.
time (UTC)temp
F
wind
direction
speed
MPH
gust
MPH
rain 1hr
in
rain 24hr
in
rain mn
in
humidity
%
barometer
mb
20260507023001 45 337 0.0 0.0 0.00 0.00 0.00 85 1006.0
20260507020005 45 353 0.0 0.0 0.00 0.00 0.00 84 1006.0
20260507013004 46 15 0.0 0.0 0.00 0.00 0.00 84 1006.0
20260507010003 46 1 0.0 0.0 0.00 0.00 0.00 83 1006.0
20260507003001 46 64 0.0 0.0 0.00 0.00 0.00 84 1005.0
20260507000005 47 16 0.0 0.0 0.00 0.00 0.00 82 1005.0
20260506233003 48 76 0.0 0.0 0.00 0.00 0.00 79 1005.0
20260506230002 49 5 0.0 0.0 0.00 0.00 0.00 78 1005.0
20260506223000 49 340 0.0 0.0 0.00 0.00 0.00 80 1005.0
20260506220005 50 355 0.0 0.0 0.00 0.00 0.00 81 1005.0
20260506213007 50 325 0.0 0.0 0.00 0.00 0.00 80 1005.0
20260506210001 50 331 0.0 0.0 0.00 0.00 0.00 80 1005.0
20260506203005 50 338 0.0 0.0 0.00 0.00 0.00 79 1005.0
20260506200003 50 6 0.0 0.0 0.00 0.00 0.00 80 1004.0
20260506193002 51 7 0.0 0.0 0.00 0.00 0.00 77 1004.0
20260506190001 51 70 0.0 0.0 0.00 0.00 0.00 74 1004.0
20260506183005 52 56 0.0 0.0 0.00 0.00 0.00 69 1004.0
20260506180003 52 34 0.0 0.0 0.00 0.00 0.00 67 1003.0
20260506173001 53 13 0.0 0.0 0.00 0.00 0.00 66 1003.0
20260506170004 52 349 0.0 0.0 0.00 0.00 0.00 66 1002.0
20260506163003 52 345 0.0 0.0 0.00 0.00 0.00 67 1002.0
20260506160001 53 53 0.0 0.0 0.00 0.00 0.00 66 1002.0
20260506153005 52 65 0.0 0.0 0.00 0.00 0.00 68 1002.0
20260506150003 51 347 0.0 0.0 0.00 0.00 0.00 73 1002.0
20260506143002 51 36 0.0 0.0 0.00 0.00 0.00 75 1002.0
20260506140000 51 37 0.0 0.0 0.00 0.00 0.00 76 1002.0
20260506133003 51 36 0.0 0.0 0.00 0.00 0.00 72 1002.0
20260506130002 52 334 0.0 0.0 0.00 0.00 0.00 70 1002.0
20260506123000 52 343 0.0 0.0 0.00 0.00 0.00 70 1001.0
20260506120004 52 354 0.0 0.0 0.00 0.00 0.00 68 1002.0
20260506113007 52 11 0.0 0.0 0.00 0.00 0.00 66 1002.0
20260506110001 52 315 0.0 0.0 0.00 0.00 0.00 66 1001.0
20260506103004 51 18 0.0 0.0 0.00 0.00 0.00 69 1001.0
20260506100003 51 12 0.0 0.0 0.00 0.00 0.00 70 1001.0
20260506093001 51 291 0.0 0.0 0.00 0.00 0.00 69 1001.0
20260506090005 50 25 0.0 0.0 0.00 0.00 0.00 71 1001.0
20260506083003 50 325 0.0 0.0 0.00 0.00 0.00 79 1001.0
20260506073004 50 357 0.0 0.0 0.00 0.00 0.00 83 1000.0
20260506043004 47 325 0.0 0.0 0.00 0.00 0.00 91 1000.0
20260506040002 47 347 0.0 0.0 0.00 0.00 0.00 91 1000.0
20260506033000 48 335 0.0 0.0 0.00 0.00 0.00 91 1000.0
20260506030004 47 358 0.0 0.0 0.00 0.00 0.00 92 1000.0